{"data":{"norad_id":57939,"intl_designator":"2023-148E","name":"STARLINK-30714","alt_names":[],"object_type":"PAYLOAD","status":"ACTIVE","operator":null,"country":"US","launch_date":"2023-09-25","launch_site_code":"AFWTR","launch_vehicle":null,"mission":null,"orbit_class":"UNKNOWN","rcs_meters":null,"size_class":null,"mass_kg":null,"dimensions":null,"purposes":["comms"],"wikipedia_slug":null,"has_3d_model":false,"image_url":null,"decayed_at":null,"tle_current":{"epoch":"2026-05-24T22:44:43.420128Z","epoch_age_seconds":76403,"freshness":"FRESH","line1":"1 57939U 23148E   26144.94772477 -.00001473  00000+0 -37639-4 0  9993","line2":"2 57939  53.1610  30.2713 0001615  81.3627 278.7557 15.30180787150093","mean_motion":15.30180787,"eccentricity":0.0001615,"inclination_deg":53.161,"raan_deg":30.2713,"arg_perigee_deg":81.3627,"mean_anomaly_deg":278.7557,"bstar":-3.7639e-5,"rev_number":15009,"period_min":94.106527296242,"perigee_km":474.1656109504,"apogee_km":476.37926219841,"semimajor_km":6853.4094365744,"source":"CELESTRAK","updated_at":"2026-05-25T13:38:18.460947Z"}}}